Middletown, RI

6:26 PM EST on January 23, 2017 (GMT -0500)
Newport State

Weather History for KUUU - May, 2014

Change the Weather History Date:

Saturday, May 3, 2014

  Actual Average Record
Temperature  
Mean Temperature 52 °F -  
Max Temperature 63 °F 60 °F 86 °F (2001)
Min Temperature 43 °F 43 °F 32 °F (1964)
Degree Days  
Heating Degree Days 12    
Growing Degree Days 2 (Base 50)    
Moisture  
Dew Point 40 °F    
Average Humidity 61    
Maximum Humidity 86    
Minimum Humidity 44    
Precipitation  
Precipitation 0.00 in - - ()
Sea Level Pressure  
Sea Level Pressure 29.81 in    
Wind  
Wind Speed 4 mph (South)    
Max Wind Speed 14 mph    
Max Gust Speed 26 mph    
Visibility 10 miles    
Events      
Averages and records for this station are not official NWS values.
T = Trace of Precipitation, MM = Missing Value Source: NWS Daily Summary

Daily Weather History Graph

Daily Weather History Graph

Search for Another Location

Airport or City:

Trip Planner

Search our weather history database for the weather conditions in past years. The results will help you decide how hot, cold, wet, or windy it might be!

Date:

Astronomy

May. 03, 2014 Rise Set
Actual Time 5:39 AM EDT 7:45 PM EDT
Civil Twilight 5:09 AM EDT 8:15 PM EDT
Nautical Twilight 4:32 AM EDT 8:52 PM EDT
Astronomical Twilight 3:51 AM EDT 9:33 PM EDT
Moon 9:05 AM EDT (5/3) 11:49 PM EDT (5/3)
Length of Visible Light 15h 06m
Length of Day
14h 05m
Waxing Crescent, 19% of the Moon is Illuminated
May 3
Waxing Crescent
May 6
First Quarter
May 14
Full
May 21
Last Quarter
May 28
New

Hourly Weather History & Observations

Time (EDT) Temp. Dew Point Humidity Pressure Visibility Wind Dir Wind Speed Gust Speed Precip Events Conditions
12:53 AM 45.0 °F 39.9 °F 82% 29.82 in 10.0 mi Calm Calm - N/A   Clear
1:53 AM 45.0 °F 39.9 °F 82% 29.83 in 10.0 mi Calm Calm - N/A   Clear
2:53 AM 44.1 °F 39.0 °F 82% 29.83 in 10.0 mi Calm Calm - N/A   Clear
3:53 AM 43.0 °F 39.0 °F 86% 29.84 in 10.0 mi Calm Calm - N/A   Scattered Clouds
4:53 AM 44.1 °F 39.0 °F 82% 29.85 in 10.0 mi Calm Calm - N/A   Clear
6:53 AM 44.1 °F 39.9 °F 85% 29.88 in 10.0 mi Calm Calm - N/A   Partly Cloudy
7:53 AM 55.9 °F 44.1 °F 64% 29.87 in 10.0 mi Calm Calm - N/A   Clear
8:53 AM 57.9 °F 41.0 °F 53% 29.88 in 10.0 mi Calm Calm - N/A   Clear
9:53 AM 61.0 °F 39.9 °F 46% 29.87 in 10.0 mi South 6.9 mph - N/A   Clear
10:53 AM 60.1 °F 37.9 °F 44% 29.86 in 10.0 mi South 9.2 mph - N/A   Clear
11:53 AM 62.1 °F 39.9 °F 44% 29.83 in 10.0 mi South 12.7 mph - N/A   Clear
12:53 PM 61.0 °F 39.9 °F 46% 29.82 in 10.0 mi South 11.5 mph - N/A   Clear
1:53 PM 62.1 °F 39.9 °F 44% 29.80 in 10.0 mi South 13.8 mph - N/A   Clear
2:53 PM 62.1 °F 39.9 °F 44% 29.79 in 10.0 mi South 10.4 mph 19.6 mph N/A   Clear
4:53 PM 60.1 °F 37.9 °F 44% 29.76 in 10.0 mi SSW 13.8 mph 26.5 mph N/A   Clear
5:53 PM 57.9 °F 37.0 °F 46% 29.76 in 10.0 mi SSW 6.9 mph 20.7 mph N/A   Clear
6:53 PM 55.0 °F 37.9 °F 53% 29.77 in 10.0 mi SSW 10.4 mph - N/A   Clear
7:53 PM 52.0 °F 39.9 °F 63% 29.77 in 10.0 mi SSW 6.9 mph - N/A   Mostly Cloudy
8:53 PM 52.0 °F 39.9 °F 63% 29.78 in 10.0 mi Variable 4.6 mph - N/A   Mostly Cloudy
9:53 PM 53.1 °F 37.9 °F 57% 29.79 in 10.0 mi SSW 4.6 mph - N/A   Overcast
10:53 PM 53.1 °F 39.9 °F 61% 29.77 in 10.0 mi Variable 3.5 mph - N/A   Mostly Cloudy
11:53 PM 50.0 °F 39.9 °F 68% 29.75 in 10.0 mi South 6.9 mph - N/A   Mostly Cloudy